Location: Devore Heights
(34.2372°N, 117.4156°W)
Time: 18:42:00
(UTC+00:00)

S-56A Canister/Altair - Pass Details

Date: 13 September 2024
Orbit: 636 x 2487 km, 38.9° (Epoch: 14 October)

Event Time Altitude Azimuth Distance (km) Brightness Sun altitude
Rises 09:04:54 0° 290° (WNW) 4,818 - -47.8°
Reaches altitude 10° 09:07:50 10° 285° (WNW) 4,057 - -47.5°
Maximum altitude 09:18:37 50° 215° (SW) 2,643 - -46.3°
Exits shadow 09:32:27 10° 146° (SE) 5,109 11.5 -44.6°
Drops below altitude 10° 09:32:31 10° 146° (SE) 5,126 11.5 -44.6°
Sets 09:36:47 0° 141° (SE) 6,147 12.1 -44.0°
